Shaw AFB, SC

6:47 PM EDT on May 24, 2017 (GMT -0400)
Shaw Air Force Base

Weather History for KSSC - March, 2013

Change the Weather History Date:

Wednesday, March 27, 2013

  Actual Average Record
Temperature  
Mean Temperature 43 °F -  
Max Temperature 57 °F 68 °F 84 °F (2007)
Min Temperature 30 °F 44 °F 27 °F (2014)
Degree Days  
Heating Degree Days 22    
Moisture  
Dew Point 19 °F    
Average Humidity 39    
Maximum Humidity 67    
Minimum Humidity 20    
Precipitation  
Precipitation 0.00 in - - ()
Sea Level Pressure  
Sea Level Pressure 30.22 in    
Wind  
Wind Speed 9 mph (WNW)    
Max Wind Speed 16 mph    
Max Gust Speed 26 mph    
Visibility 10 miles    
Events      
Averages and records for this station are not official NWS values.
T = Trace of Precipitation, MM = Missing Value Source: NWS Daily Summary

Daily Weather History Graph

Daily Weather History Graph

Search for Another Location

Airport or City:

Trip Planner

Search our weather history database for the weather conditions in past years. The results will help you decide how hot, cold, wet, or windy it might be!

Date:

Astronomy

Mar. 27, 2013 Rise Set
Actual Time 7:15 AM EDT 7:39 PM EDT
Civil Twilight 6:50 AM EDT 8:04 PM EDT
Nautical Twilight 6:21 AM EDT 8:33 PM EDT
Astronomical Twilight 5:51 AM EDT 9:03 PM EDT
Moon 8:17 PM EDT (3/27) 7:07 AM EDT (3/27)
Length of Visible Light 13h 13m
Length of Day
12h 23m
Full, 100% of the Moon is Illuminated
Mar 27
Full
Apr 3
Last Quarter
Apr 10
New
Apr 18
First Quarter
Apr 25
Full

Hourly Weather History & Observations

Time (EDT) Temp. Windchill Dew Point Humidity Pressure Visibility Wind Dir Wind Speed Gust Speed Precip Events Conditions
12:58 AM 37.9 °F 32.7 °F 23.2 °F 55% 30.19 in 10.0 mi WNW 6.9 mph - N/A   Clear
1:58 AM 36.9 °F 30.1 °F 21.9 °F 55% 30.19 in 10.0 mi WNW 9.2 mph - N/A   Clear
2:58 AM 35.2 °F 28.8 °F 21.7 °F 58% 30.19 in 10.0 mi West 8.1 mph - N/A   Clear
3:58 AM 33.3 °F 26.4 °F 21.6 °F 62% 30.19 in 10.0 mi WNW 8.1 mph - N/A   Clear
4:58 AM 34.0 °F 28.0 °F 20.3 °F 57% 30.19 in 10.0 mi WNW 6.9 mph - N/A   Clear
5:58 AM 30.0 °F - 20.3 °F 67% 30.21 in 10.0 mi South 2.3 mph - N/A   Clear
6:58 AM 31.6 °F 27.0 °F 19.8 °F 62% 30.22 in 10.0 mi West 4.6 mph - N/A   Clear
7:58 AM 32.4 °F 24.0 °F 21.4 °F 64% 30.25 in 10.0 mi West 10.4 mph - N/A   Clear
8:05 AM 32.0 °F 24.2 °F 21.2 °F 64% 30.24 in 10.0 mi WNW 9.2 mph - N/A   Light Drizzle
8:15 AM 33.8 °F 25.8 °F 21.2 °F 60% 30.25 in 10.0 mi West 10.4 mph - N/A   Clear
8:58 AM 38.5 °F 32.1 °F 20.7 °F 49% 30.27 in 10.0 mi NW 9.2 mph - N/A   Clear
9:58 AM 43.0 °F 37.2 °F 20.8 °F 41% 30.27 in 10.0 mi NNW 10.4 mph - N/A   Clear
10:58 AM 47.1 °F - 18.5 °F 32% 30.27 in 10.0 mi NW 9.2 mph - N/A   Clear
11:42 AM 48.2 °F - 17.6 °F 30% 30.26 in 10.0 mi West 13.8 mph 20.7 mph N/A   Clear
11:58 AM 49.5 °F - 18.3 °F 29% 30.26 in 10.0 mi West 11.5 mph - N/A   Clear
12:58 PM 51.8 °F - 16.7 °F 25% 30.24 in 10.0 mi West 16.1 mph 20.7 mph N/A   Clear
1:24 PM 53.6 °F - 17.6 °F 24% 30.22 in 10.0 mi NNW 11.5 mph 21.9 mph N/A   Light Drizzle
1:37 PM 53.6 °F - 17.6 °F 24% 30.22 in 10.0 mi West 9.2 mph 17.3 mph N/A   Clear
1:58 PM 53.6 °F - 17.2 °F 24% 30.22 in 10.0 mi WNW 12.7 mph 18.4 mph 0.00 in   Clear
2:30 PM 55.4 °F - 17.6 °F 23% 30.20 in 10.0 mi NW 13.8 mph 18.4 mph N/A   Clear
2:42 PM 55.4 °F - 15.8 °F 21% 30.20 in 10.0 mi NW 6.9 mph 20.7 mph N/A   Clear
2:56 PM 55.4 °F - 15.8 °F 21% 30.19 in 10.0 mi West 11.5 mph 26.5 mph N/A   Clear
2:58 PM 55.0 °F - 16.3 °F 22% 30.20 in 10.0 mi West 11.5 mph 26.5 mph N/A   Clear
3:58 PM 56.1 °F - 15.8 °F 21% 30.19 in 10.0 mi WNW 11.5 mph 17.3 mph N/A   Clear
4:40 PM 55.4 °F - 15.8 °F 21% 30.17 in 10.0 mi WNW 13.8 mph 18.4 mph N/A   Clear
4:58 PM 56.7 °F - 15.8 °F 20% 30.18 in 10.0 mi West 9.2 mph - N/A   Clear
5:58 PM 56.5 °F - 16.9 °F 21% 30.18 in 10.0 mi NW 8.1 mph - N/A   Clear
6:58 PM 55.2 °F - 15.6 °F 21% 30.17 in 10.0 mi West 8.1 mph - N/A   Clear
7:58 PM 51.1 °F - 17.6 °F 27% 30.19 in 10.0 mi WNW 4.6 mph - N/A   Clear
8:58 PM 44.6 °F - 20.8 °F 39% 30.21 in 10.0 mi NW 2.3 mph - N/A   Clear
9:58 PM 42.3 °F - 23.9 °F 48% 30.22 in 10.0 mi Calm Calm - N/A   Clear
10:58 PM 39.6 °F 34.0 °F 22.5 °F 50% 30.24 in 10.0 mi NNE 8.1 mph - N/A   Clear
11:58 PM 42.1 °F 35.7 °F 20.1 °F 42% 30.24 in 10.0 mi NNE 11.5 mph - N/A   Clear